Location: Unspecified
(42.3650°N, 71.1030°W)
Time: 00:25:17
(UTC+00:00)

Vanguard 3 - Pass Details

Date: 30 June 2024
Orbit: 508 x 3230 km, 33.4° (Epoch: 20 July)

Event Time Altitude Azimuth Distance (km) Brightness Sun altitude
Exits shadow 07:35:14 - 185° (S) 6,890 11.4 -14.0°
Reaches altitude 10° 07:41:16 10° 172° (S) 6,122 11.2 -13.3°
Maximum altitude 07:50:51 16° 141° (SE) 5,305 11.2 -12.1°
Drops below altitude 10° 07:59:17 10° 110° (ESE) 5,333 11.6 -11.1°
Sets 08:05:10 0° 91° (E) 5,861 12.2 -10.3°
